Location: Finnegan
(51.1333°N, 112.0833°W)
Time: 20:54:33
(UTC+00:00)

Envisat - Pass Details

Date: 11 December 2021
Orbit: 764 x 766 km, 98.2° (Epoch: 26 January)

Event Time Altitude Azimuth Distance (km) Brightness Sun altitude
Rises 14:29:35 0° 3° (N) 3,247 6.0 -7.8°
Reaches altitude 10° 14:32:45 10° 342° (NNW) 2,316 5.1 -7.4°
Maximum altitude 14:35:42 16° 307° (NW) 1,941 4.5 -7.0°
Drops below altitude 10° 14:38:38 10° 271° (W) 2,307 4.9 -6.6°
Sets 14:41:48 0° 250° (WSW) 3,228 5.8 -6.2°
